Weather History for KE80 - December, 2012

Change the Weather History Date:

Friday, December 7, 2012

  Actual Average (KABQ) Record (KABQ)
Temperature  
Mean Temperature 50 °F 37 °F  
Max Temperature 64 °F 47 °F 66 °F (1981)
Min Temperature 36 °F 27 °F 3 °F (1912)
Degree Days  
Heating Degree Days 15 28  
Month to date heating degree days 188  
Since 1 July heating degree days 1055  
Cooling Degree Days 0 0  
Month to date cooling degree days 0  
Year to date cooling degree days 1322  
Moisture  
Dew Point 25 °F    
Average Humidity 41    
Maximum Humidity 62    
Minimum Humidity 23    
Precipitation  
Precipitation 0.00 in 0.01 in 0.20 in (1998)
Month to date precipitation 0.12  
Year to date precipitation 9.07  
Snow  
Snow 0.00 in - - ()
Month to date snowfall  
Since 1 July snowfall  
Snow Depth -    
Sea Level Pressure  
Sea Level Pressure 29.95 in    
Wind  
Wind Speed 4 mph (NW)    
Max Wind Speed 16 mph    
Max Gust Speed 21 mph    
Visibility 10 miles    
Events      
T = Trace of Precipitation, MM = Missing Value Source: NWS Daily Summary

Daily Weather History Graph

Daily Weather History Graph

Search for Another Location

Airport or City:

Trip Planner

Search our weather history database for the weather conditions in past years. The results will help you decide how hot, cold, wet, or windy it might be!

Date:

Astronomy

Dec. 07, 2012 Rise Set
Actual Time 7:01 AM MST 4:56 PM MST
Civil Twilight 6:33 AM MST 5:24 PM MST
Nautical Twilight 6:02 AM MST 5:55 PM MST
Astronomical Twilight 5:31 AM MST 6:26 PM MST
Moon 12:37 AM MST (12/7) 12:42 PM MST (12/7)
Length of Visible Light 10h 50m
Length of Day
9h 54m
Last Quarter, 38% of the Moon is Illuminated
Dec 7
Last Quarter
Dec 13
New
Dec 19
First Quarter
Dec 28
Full
Jan 4
Last Quarter

Hourly Weather History & Observations

Time (MST) Temp. Windchill Dew Point Humidity Pressure Visibility Wind Dir Wind Speed Gust Speed Precip Events Conditions
12:15 AM 48.0 °F - 23.2 °F 38% 29.94 in 10.0 mi NNE 4.6 mph - N/A   Overcast
12:35 AM 47.8 °F - 22.5 °F 37% 29.94 in 10.0 mi NNE 5.8 mph - N/A   Overcast
12:55 AM 47.7 °F - 22.8 °F 38% 29.94 in 10.0 mi Calm Calm - N/A   Overcast
1:15 AM 47.7 °F - 23.2 °F 38% 29.94 in 10.0 mi Calm Calm - N/A   Overcast
1:35 AM 49.3 °F - 27.5 °F 43% 29.94 in 10.0 mi WSW 6.9 mph - N/A   Overcast
1:55 AM 48.6 °F - 27.9 °F 45% 29.94 in 10.0 mi West 5.8 mph - N/A   Overcast
2:15 AM 43.9 °F 42.3 °F 21.9 °F 42% 29.95 in 10.0 mi NNW 3.5 mph - N/A   Mostly Cloudy
2:35 AM 42.8 °F 41.1 °F 23.4 °F 46% 29.94 in 10.0 mi NW 3.5 mph - N/A   Scattered Clouds
2:55 AM 39.6 °F 36.3 °F 20.7 °F 47% 29.95 in 10.0 mi NE 4.6 mph - N/A   Clear
3:15 AM 41.9 °F - 20.3 °F 42% 29.94 in 10.0 mi Calm Calm - N/A   Clear
3:35 AM 39.9 °F 36.7 °F 21.7 °F 48% 29.95 in 10.0 mi South 4.6 mph - N/A   Clear
3:55 AM 37.9 °F 35.5 °F 21.9 °F 53% 29.95 in 10.0 mi East 3.5 mph - N/A   Clear
4:15 AM 41.5 °F - 25.5 °F 53% 29.95 in 10.0 mi Calm Calm - N/A   Scattered Clouds
4:35 AM 39.4 °F - 24.4 °F 55% 29.95 in 10.0 mi Calm Calm - N/A   Scattered Clouds
4:55 AM 38.1 °F - 22.6 °F 54% 29.95 in 10.0 mi Calm Calm - N/A   Clear
5:15 AM 38.1 °F - 20.1 °F 48% 29.95 in 10.0 mi Calm Calm - N/A   Clear
5:35 AM 36.9 °F - 22.3 °F 56% 29.95 in 10.0 mi Calm Calm - N/A   Clear
5:55 AM 41.4 °F - 28.0 °F 59% 29.95 in 10.0 mi Calm Calm - N/A   Clear
6:15 AM 41.0 °F 36.4 °F 28.0 °F 60% 29.95 in 10.0 mi WSW 6.9 mph - N/A   Clear
6:55 AM 41.7 °F 38.0 °F 27.9 °F 58% 29.97 in 10.0 mi WNW 5.8 mph - N/A   Clear
7:15 AM 41.0 °F - 28.4 °F 61% 29.97 in 10.0 mi Calm Calm - N/A   Clear
7:35 AM 38.5 °F 34.1 °F 26.4 °F 62% 29.98 in 10.0 mi WSW 5.8 mph - N/A   Clear
7:55 AM 41.2 °F - 25.9 °F 55% 29.98 in 10.0 mi Calm Calm - N/A   Clear
8:15 AM 45.3 °F - 26.2 °F 47% 30.00 in 10.0 mi Calm Calm - N/A   Clear
8:35 AM 47.7 °F - 26.4 °F 44% 30.00 in 10.0 mi Calm Calm - N/A   Clear
8:55 AM 48.2 °F - 25.9 °F 42% 30.00 in 10.0 mi Calm Calm - N/A   Clear
9:15 AM 49.8 °F - 26.1 °F 40% 30.00 in 10.0 mi Calm Calm - N/A   Clear
9:35 AM 50.5 °F - 27.1 °F 40% 30.00 in 10.0 mi ENE 6.9 mph - N/A   Clear
9:55 AM 50.5 °F - 26.2 °F 39% 30.00 in 10.0 mi ENE 4.6 mph - N/A   Clear
10:15 AM 52.2 °F - 27.5 °F 39% 29.99 in 10.0 mi East 3.5 mph - N/A   Clear
10:35 AM 53.6 °F - 28.0 °F 37% 29.98 in 10.0 mi ENE 5.8 mph - N/A   Clear
10:55 AM 54.5 °F - 28.6 °F 37% 29.98 in 10.0 mi East 4.6 mph - N/A   Clear
11:15 AM 55.2 °F - 28.9 °F 37% 29.97 in 10.0 mi ESE 3.5 mph - N/A   Clear
11:35 AM 56.5 °F - 29.5 °F 36% 29.96 in 10.0 mi Calm Calm - N/A   Clear
11:55 AM 58.1 °F - 29.8 °F 34% 29.95 in 10.0 mi Calm Calm - N/A   Clear
12:15 PM 59.5 °F - 30.0 °F 33% 29.94 in 10.0 mi East 3.5 mph - N/A   Clear
12:35 PM 60.3 °F - 30.2 °F 32% 29.93 in 10.0 mi East 3.5 mph - N/A   Clear
12:55 PM 60.8 °F - 30.0 °F 31% 29.91 in 10.0 mi NE 3.5 mph - N/A   Clear
1:15 PM 63.0 °F - 29.1 °F 28% 29.91 in 10.0 mi West 9.2 mph - N/A   Scattered Clouds
1:35 PM 62.4 °F - 28.9 °F 28% 29.90 in 10.0 mi Calm Calm - N/A   Clear
1:55 PM 63.9 °F - 27.5 °F 25% 29.89 in 10.0 mi WNW 12.7 mph 18.4 mph N/A   Scattered Clouds
2:15 PM 64.9 °F - 27.7 °F 25% 29.89 in 10.0 mi West 16.1 mph 19.6 mph N/A   Scattered Clouds
2:35 PM 64.8 °F - 28.0 °F 25% 29.89 in 10.0 mi WNW 8.1 mph - N/A   Scattered Clouds
2:55 PM 64.2 °F - 28.0 °F 26% 29.88 in 10.0 mi NW 9.2 mph 16.1 mph N/A   Scattered Clouds
3:15 PM 64.4 °F - 25.7 °F 23% 29.89 in 10.0 mi NW 11.5 mph 17.3 mph N/A   Clear
3:35 PM 64.2 °F - 27.5 °F 25% 29.89 in 10.0 mi WNW 12.7 mph 17.3 mph N/A   Scattered Clouds
3:55 PM 63.3 °F - 27.3 °F 26% 29.89 in 10.0 mi WNW 12.7 mph - N/A   Clear
4:15 PM 62.6 °F - 26.6 °F 26% 29.90 in 10.0 mi WNW 9.2 mph 20.7 mph N/A   Clear
4:35 PM 61.0 °F - 25.9 °F 26% 29.90 in 10.0 mi WNW 6.9 mph - N/A   Clear
4:55 PM 58.6 °F - 24.6 °F 27% 29.91 in 10.0 mi WNW 9.2 mph - N/A   Clear
5:15 PM 55.6 °F - 23.2 °F 29% 29.91 in 10.0 mi WNW 8.1 mph - N/A   Clear
5:35 PM 51.1 °F - 22.1 °F 32% 29.92 in 10.0 mi WNW 8.1 mph - N/A   Clear
5:55 PM 50.5 °F - 21.9 °F 33% 29.93 in 10.0 mi WNW 5.8 mph - N/A   Clear
6:15 PM 48.7 °F - 21.4 °F 34% 29.93 in 10.0 mi WNW 8.1 mph - N/A   Clear
6:35 PM 47.8 °F - 21.4 °F 35% 29.94 in 10.0 mi NW 6.9 mph - N/A   Clear
6:55 PM 48.9 °F - 22.1 °F 35% 29.94 in 10.0 mi NNW 6.9 mph - N/A   Clear
7:15 PM 48.4 °F - 22.6 °F 36% 29.95 in 10.0 mi NNW 6.9 mph - N/A   Clear
7:35 PM 45.7 °F - 21.7 °F 39% 29.95 in 10.0 mi Calm Calm - N/A   Clear
7:55 PM 44.8 °F 43.3 °F 21.9 °F 40% 29.95 in 10.0 mi West 3.5 mph - N/A   Clear
8:15 PM 47.3 °F - 23.7 °F 40% 29.95 in 10.0 mi North 3.5 mph - N/A   Clear
8:35 PM 48.0 °F - 26.1 °F 42% 29.96 in 10.0 mi NNW 5.8 mph - N/A   Clear
8:55 PM 46.9 °F - 25.9 °F 44% 29.97 in 10.0 mi NNW 5.8 mph - N/A   Clear
9:15 PM 41.9 °F 36.9 °F 24.4 °F 50% 29.97 in 10.0 mi NNW 8.1 mph - N/A   Clear
9:35 PM 40.3 °F 34.4 °F 23.4 °F 51% 29.97 in 10.0 mi NNW 9.2 mph - N/A   Clear
9:55 PM 46.0 °F 43.9 °F 24.8 °F 43% 29.97 in 10.0 mi North 4.6 mph - N/A   Clear
10:15 PM 46.0 °F - 24.8 °F 43% 29.97 in 10.0 mi Calm Calm - N/A   Clear
10:35 PM 46.4 °F - 25.0 °F 43% 29.97 in 10.0 mi Calm Calm - N/A   Clear
10:55 PM 41.7 °F - 24.4 °F 50% 29.98 in 10.0 mi Calm Calm - N/A   Clear
11:15 PM 37.9 °F 32.7 °F 22.6 °F 54% 29.99 in 10.0 mi WSW 6.9 mph - N/A   Clear
11:35 PM 38.3 °F 34.8 °F 23.0 °F 54% 29.99 in 10.0 mi WSW 4.6 mph - N/A   Clear
11:55 PM 36.3 °F 33.7 °F 22.1 °F 56% 29.99 in 10.0 mi West 3.5 mph - N/A   Clear